NOAA 16 DEB, 41045

Orbit data source: Space-Track

NOAA 16 DEB, 41045 is space debris in SSO originally from a launch on Thu, 21 Sep 2000 UTC launched from the Air Force Western Test Range (AFWTR). Debris objects in space refer to the collection of defunct objects orbiting the Earth. Examples of debris include non-operational satellites, rocket bodies, and fragments generated from explosions, collisions, or faulty payload assembly.

Loading next visibility...
Identifier
41045, 2000-055C
Orbit
SSO
Country
Flag of USUS
Related business
Manufacturer
Unknown
Mission
Spacecraft
Bus & Motor
Unknown
Mass
Unknown
Launch date (UTC)
2000-09-21 (26 years ago)
Launch vehicle
Unknown
Launch site
Air Force Western Test Range (AFWTR)
Object type
Payload
Rocket body
Debris
Shape & HBR
Unknown shape, 0.1 m
Radar Cross Section
Small (<0.1 m²)

Expand to show TLE details & history
Last TLE update: 13 hours ago

TLE from 13 hours ago
0 NOAA 16 DEB
1 41045U 00055C   26126.46233022  .00000078  00000-0  61485-4 0  9996
2 41045  98.4515 134.9621 0014221  44.7858 315.4462 14.14808691539251
Epoch: 2026-05-06T11:05Z
TLE epoch observation values (Epoch: 2026-05-06T11:05:45.331Z)
Latitude
-0.00004°
Longitude
104.20076°
Altitude
838.567 km
Speed
7.437 km/s
True Right ascension
08h 59m 50s
True Declination
0° 00' 00"
Sunlit
Object was in daylight at epoch
Visualization orbit readout
Latitude
Unknown
Longitude
Unknown
Altitude
Unknown
Speed
Unknown
Apparent Right ascension
Unknown
Apparent Declination
Unknown
Sunlit
N/A
Visualization observer readout
Local Sidereal Time
08:32:26
Azimuth
Unknown
Elevation
Unknown
Doppler factor
Unknown
Orbital elements
Apogee altitude
850.382 km
Perigee altitude
829.851 km
Semi-major axis
7,218.253 km
Eccentricity
0.00142
Inclination
98.4515°
RAAN
134.9621°
Arg. of periapsis
44.7858°
True anomaly
315.33173°
Mean anomaly
315.4462°
Eccentric anomaly
315.38898°
Mean motion
3.53912 °/min
Orbital period
101.72 mins
BSTAR
0.000061485
Loading maneuver chart data...
Computing Atmospheric mass density...
Loading historical data...
Loading historical data...
Loading historical data...
Loading historical data...
Loading historical data...
Loading historical data...
Loading historical data...

Documentation

Showing up to 5 results
|